Location: Marcé
(47.5801°N, 0.3280°W)
Time: 09:50:21
(UTC+01:00)

Tiros 1 despin weight - Pass Details

Date: 18 December 2021
Orbit: 592 x 641 km, 48.2° (Epoch: 25 January)

Event Time Altitude Azimuth Distance (km) Brightness Sun altitude
Rises 11:40:03 0° 274° (W) 2,874 ? 16.9°
Reaches altitude 10° 11:42:23 10° 275° (W) 1,961 ? 17.0°
Maximum altitude 11:46:53 83° 3° (N) 612 ? 17.2°
Drops below altitude 10° 11:51:20 10° 92° (E) 1,933 ? 17.5°
Sets 11:53:36 0° 94° (E) 2,830 ? 17.6°
